WXM80 ListenWXM80 Stop

You find our weather info also at:

UK Metoffice

WeatherCloud

Weather Underground

Northeastern Weather Network

AWEKAS

Citizen Weather Observer Program (CWOP)

HAMweather, WeatherForYou, PWS Weather


Weather Underground History page Text

Daily Summary for October 19, 2016 Units:  English    Metric   Both
« Previous Day
Next Day »
Daily Weekly Monthly Yearly Custom
  High: Low: Average:
Temperature: 83.5 °F 62.1 °F 72.4 °F
Dew Point: 69.3 °F 56.2 °F 63.7 °F
Humidity: 91 % 50 % 75 %
Wind Speed: 6.1 mph 0.0 mph 2.1 mph
Wind Gust: 12.7 mph - -
Wind:- - SW
Pressure: 30.12 in 29.81 in -
Precipitation: 0.00 in    
Historical Graphs
 
 
Tabular Data for October 19, 2016
Time Temperature Dew Point Pressure Wind Wind Speed Wind Gust Humidity Rainfall Rate (Hourly)
00:03 68.6 °F 64.9 °F 29.84 in WSW 2.1 mph 6.0 mph 88 % 0.00 in
00:08 68.6 °F 64.9 °F 29.84 in SW 3.8 mph 5.8 mph 88 % 0.00 in
00:13 68.7 °F 65.0 °F 29.84 in SW 2.4 mph 4.6 mph 88 % 0.00 in
00:18 68.7 °F 65.0 °F 29.83 in SSW 2.5 mph 4.0 mph 88 % 0.00 in
00:23 68.8 °F 65.1 °F 29.83 in SW 4.6 mph 6.0 mph 88 % 0.00 in
00:29 68.8 °F 65.1 °F 29.83 in South 2.0 mph 3.5 mph 88 % 0.00 in
00:34 68.9 °F 65.2 °F 29.83 in SW 1.5 mph 5.8 mph 88 % 0.00 in
00:39 69.0 °F 65.3 °F 29.83 in SW 1.8 mph 3.5 mph 88 % 0.00 in
00:44 69.0 °F 65.0 °F 29.83 in SW 0.9 mph 3.0 mph 87 % 0.00 in
00:49 69.1 °F 65.1 °F 29.83 in SW 1.5 mph 3.5 mph 87 % 0.00 in
00:54 69.1 °F 65.1 °F 29.83 in SW 2.6 mph 6.9 mph 87 % 0.00 in
00:59 69.1 °F 65.1 °F 29.83 in SW 2.9 mph 5.0 mph 87 % 0.00 in
01:04 69.1 °F 65.1 °F 29.83 in SW 0.5 mph 2.3 mph 87 % 0.00 in
01:09 69.1 °F 65.1 °F 29.83 in WSW 1.1 mph 6.0 mph 87 % 0.00 in
01:14 69.1 °F 65.1 °F 29.83 in SSW 4.2 mph 5.8 mph 87 % 0.00 in
01:20 69.1 °F 65.1 °F 29.83 in WSW 3.8 mph 6.9 mph 87 % 0.00 in
01:25 69.1 °F 65.1 °F 29.83 in SW 0.9 mph 3.5 mph 87 % 0.00 in
01:30 69.1 °F 65.1 °F 29.83 in West 1.2 mph 3.5 mph 87 % 0.00 in
01:35 69.1 °F 65.1 °F 29.83 in SSW 1.5 mph 6.9 mph 87 % 0.00 in
01:40 69.1 °F 65.1 °F 29.82 in SSW 2.8 mph 3.5 mph 87 % 0.00 in
01:45 69.1 °F 65.1 °F 29.83 in SW 2.5 mph 4.6 mph 87 % 0.00 in
01:50 69.0 °F 65.3 °F 29.83 in SW 1.0 mph 3.5 mph 88 % 0.00 in
01:55 69.0 °F 65.3 °F 29.82 in SSW 2.5 mph 5.8 mph 88 % 0.00 in
02:00 69.0 °F 65.3 °F 29.82 in SW 3.0 mph 9.2 mph 88 % 0.00 in
02:05 69.0 °F 65.3 °F 29.82 in SSW 4.8 mph 6.9 mph 88 % 0.00 in
02:11 69.0 °F 65.3 °F 29.82 in SW 5.0 mph 7.0 mph 88 % 0.00 in
02:16 69.1 °F 65.4 °F 29.82 in SSW 2.0 mph 7.0 mph 88 % 0.00 in
02:20 69.1 °F 65.4 °F 29.82 in SSW 1.4 mph 4.0 mph 88 % 0.00 in
02:26 69.1 °F 65.1 °F 29.82 in SSW 5.0 mph 7.0 mph 87 % 0.00 in
02:31 69.1 °F 65.1 °F 29.82 in Calm   2.0 mph 87 % 0.00 in
02:35 69.1 °F 65.1 °F 29.82 in SW 4.1 mph 4.1 mph 87 % 0.00 in
02:41 69.2 °F 65.1 °F 29.82 in SW 2.0 mph 9.0 mph 87 % 0.00 in
02:45 69.2 °F 65.2 °F 29.82 in SW 3.0 mph 9.0 mph 87 % 0.00 in
02:50 69.2 °F 65.2 °F 29.82 in WSW 5.5 mph 11.5 mph 87 % 0.00 in
02:56 69.3 °F 65.3 °F 29.82 in WSW 6.0 mph 10.0 mph 87 % 0.00 in
03:01 69.4 °F 65.4 °F 29.82 in WSW 3.7 mph 6.9 mph 87 % 0.00 in
03:06 69.4 °F 65.4 °F 29.82 in SW 1.4 mph 5.0 mph 87 % 0.00 in
03:11 69.4 °F 65.4 °F 29.82 in SW 2.0 mph 6.9 mph 87 % 0.00 in
03:16 69.5 °F 65.5 °F 29.82 in WSW 3.7 mph 9.2 mph 87 % 0.00 in
03:21 69.5 °F 65.5 °F 29.82 in SSW 3.9 mph 12.7 mph 87 % 0.00 in
03:26 69.5 °F 65.5 °F 29.82 in SSW 4.4 mph 6.0 mph 87 % 0.00 in
03:31 69.5 °F 65.5 °F 29.83 in SSW 5.6 mph 8.1 mph 87 % 0.00 in
03:36 69.5 °F 65.1 °F 29.82 in WSW 1.0 mph 5.8 mph 86 % 0.00 in
03:41 69.5 °F 65.1 °F 29.82 in SSW 2.8 mph 5.8 mph 86 % 0.00 in
03:46 69.5 °F 65.1 °F 29.83 in SW 2.2 mph 4.6 mph 86 % 0.00 in
03:52 69.4 °F 65.4 °F 29.83 in WSW 5.2 mph 5.8 mph 87 % 0.00 in
03:57 69.4 °F 65.4 °F 29.83 in WSW 0.1 mph 6.9 mph 87 % 0.00 in
04:02 69.3 °F 65.3 °F 29.83 in West 1.0 mph 4.6 mph 87 % 0.00 in
04:07 69.2 °F 65.2 °F 29.83 in WSW 1.1 mph 4.0 mph 87 % 0.00 in
04:12 69.2 °F 65.2 °F 29.82 in SW 1.9 mph 3.5 mph 87 % 0.00 in
04:17 69.1 °F 65.1 °F 29.82 in SSW 1.5 mph 5.0 mph 87 % 0.00 in
04:22 69.0 °F 65.0 °F 29.82 in SSW 1.8 mph 6.9 mph 87 % 0.00 in
04:27 68.9 °F 64.9 °F 29.82 in WSW 0.4 mph 3.5 mph 87 % 0.00 in
04:32 68.8 °F 65.1 °F 29.82 in SSW 4.1 mph 4.1 mph 88 % 0.00 in
04:37 68.7 °F 65.0 °F 29.82 in SSW 4.1 mph 5.8 mph 88 % 0.00 in
04:43 68.7 °F 65.0 °F 29.82 in SSW 3.1 mph 8.1 mph 88 % 0.00 in
04:48 68.7 °F 65.0 °F 29.81 in SSW 3.2 mph 4.6 mph 88 % 0.00 in
04:53 68.7 °F 65.0 °F 29.82 in WSW 3.9 mph 6.9 mph 88 % 0.00 in
04:58 68.7 °F 65.0 °F 29.83 in SW 2.6 mph 5.8 mph 88 % 0.00 in
05:03 68.8 °F 65.1 °F 29.82 in West 3.0 mph 5.0 mph 88 % 0.00 in
05:08 68.8 °F 65.1 °F 29.83 in SSW 3.6 mph 4.6 mph 88 % 0.00 in
05:13 68.8 °F 65.1 °F 29.83 in SW 1.7 mph 4.6 mph 88 % 0.00 in
05:18 68.8 °F 65.1 °F 29.83 in SW 0.9 mph 3.5 mph 88 % 0.00 in
05:28 68.8 °F 65.1 °F 29.83 in SW 0.6 mph 9.2 mph 88 % 0.00 in
05:34 68.8 °F 65.1 °F 29.83 in SW 2.2 mph 5.8 mph 88 % 0.00 in
05:39 68.8 °F 65.1 °F 29.84 in SSW 1.5 mph 5.0 mph 88 % 0.00 in
05:44 68.8 °F 65.1 °F 29.84 in WSW 2.2 mph 3.5 mph 88 % 0.00 in
05:46 68.8 °F 65.1 °F 29.84 in WSW 2.0 mph 7.0 mph 88 % 0.00 in
05:50 68.8 °F 65.1 °F 29.84 in WSW 2.0 mph 4.0 mph 88 % 0.00 in
05:55 68.8 °F 65.1 °F 29.84 in SW 3.0 mph 8.0 mph 88 % 0.00 in
06:01 68.8 °F 65.1 °F 29.84 in SW 2.8 mph 6.0 mph 88 % 0.00 in
06:06 68.8 °F 65.1 °F 29.85 in SW 2.1 mph 3.5 mph 88 % 0.00 in
06:11 68.7 °F 65.0 °F 29.85 in SW 1.2 mph 2.3 mph 88 % 0.00 in
06:16 68.7 °F 65.0 °F 29.85 in SW 0.3 mph 3.5 mph 88 % 0.00 in
06:21 68.6 °F 64.9 °F 29.85 in West 3.1 mph 4.6 mph 88 % 0.00 in
06:26 68.5 °F 64.8 °F 29.85 in WSW 1.4 mph 3.0 mph 88 % 0.00 in
06:31 68.5 °F 64.8 °F 29.85 in WSW 1.4 mph 3.5 mph 88 % 0.00 in
06:36 68.4 °F 64.7 °F 29.86 in SW 1.8 mph 4.0 mph 88 % 0.00 in
06:41 68.3 °F 64.6 °F 29.86 in Calm   1.2 mph 88 % 0.00 in
06:46 68.2 °F 64.5 °F 29.86 in Calm     88 % 0.00 in
06:51 68.1 °F 64.7 °F 29.86 in WSW 2.6 mph 6.0 mph 89 % 0.00 in
06:57 68.0 °F 64.6 °F 29.86 in WSW 0.8 mph 3.5 mph 89 % 0.00 in
07:02 67.9 °F 64.5 °F 29.86 in WSW 2.0 mph 3.5 mph 89 % 0.00 in
07:07 67.8 °F 64.4 °F 29.86 in WSW 0.4 mph 2.3 mph 89 % 0.00 in
07:12 67.7 °F 64.3 °F 29.86 in SW 0.2 mph 1.2 mph 89 % 0.00 in
07:17 67.7 °F 64.7 °F 29.87 in Calm   1.2 mph 90 % 0.00 in
07:22 67.6 °F 64.6 °F 29.87 in WSW 0.5 mph 3.5 mph 90 % 0.00 in
07:27 67.6 °F 64.6 °F 29.87 in SW 1.9 mph 3.5 mph 90 % 0.00 in
07:32 67.5 °F 64.5 °F 29.87 in SW 1.0 mph 3.5 mph 90 % 0.00 in
07:37 67.5 °F 64.5 °F 29.88 in SW 1.5 mph 3.5 mph 90 % 0.00 in
07:42 67.5 °F 64.5 °F 29.88 in SW 0.1 mph 2.3 mph 90 % 0.00 in
07:48 67.5 °F 64.5 °F 29.89 in SW 0.9 mph 2.0 mph 90 % 0.00 in
07:53 67.6 °F 64.6 °F 29.89 in WSW 1.6 mph 3.5 mph 90 % 0.00 in
07:58 67.6 °F 64.9 °F 29.89 in West 2.6 mph 5.8 mph 91 % 0.00 in
08:03 67.6 °F 64.9 °F 29.89 in WSW 1.3 mph 3.5 mph 91 % 0.00 in
08:08 67.7 °F 65.0 °F 29.90 in WSW 0.6 mph 1.2 mph 91 % 0.00 in
08:13 67.7 °F 65.0 °F 29.90 in WSW 2.2 mph 4.6 mph 91 % 0.00 in
08:18 67.8 °F 65.1 °F 29.90 in WSW 1.4 mph 5.8 mph 91 % 0.00 in
08:23 67.9 °F 65.2 °F 29.90 in SSW 1.6 mph 4.0 mph 91 % 0.00 in
08:33 68.2 °F 65.2 °F 29.90 in WSW 2.5 mph 4.6 mph 90 % 0.00 in
08:39 68.4 °F 65.4 °F 29.90 in SSW 3.1 mph 4.6 mph 90 % 0.00 in
08:44 68.6 °F 65.5 °F 29.90 in WSW 3.0 mph 5.8 mph 90 % 0.00 in
08:49 68.8 °F 65.7 °F 29.91 in SW 3.0 mph 8.1 mph 90 % 0.00 in
08:54 69.1 °F 66.0 °F 29.90 in SSW 5.0 mph 8.0 mph 90 % 0.00 in
08:59 69.4 °F 66.0 °F 29.91 in SW 3.6 mph 6.0 mph 89 % 0.00 in
09:04 69.7 °F 66.3 °F 29.91 in SW 2.6 mph 3.5 mph 89 % 0.00 in
09:09 70.1 °F 66.4 °F 29.91 in SW 3.0 mph 5.0 mph 88 % 0.00 in
09:14 70.5 °F 66.4 °F 29.91 in SW 2.9 mph 8.0 mph 87 % 0.00 in
09:19 70.9 °F 66.5 °F 29.91 in SW 3.4 mph 6.0 mph 86 % 0.00 in
09:24 71.2 °F 66.5 °F 29.91 in WSW 3.9 mph 6.9 mph 85 % 0.00 in
09:30 71.5 °F 66.4 °F 29.92 in WNW 3.9 mph 9.2 mph 84 % 0.00 in
09:35 71.7 °F 66.6 °F 29.92 in WSW 3.7 mph 4.6 mph 84 % 0.00 in
09:40 71.9 °F 66.5 °F 29.92 in WSW 1.7 mph 4.6 mph 83 % 0.00 in
09:45 72.1 °F 66.6 °F 29.92 in WNW 1.7 mph 3.5 mph 83 % 0.00 in
09:50 72.3 °F 66.8 °F 29.92 in WSW 2.0 mph 4.6 mph 83 % 0.00 in
09:55 72.6 °F 66.8 °F 29.92 in SW 1.4 mph 4.6 mph 82 % 0.00 in
10:00 72.7 °F 66.9 °F 29.92 in WSW 2.1 mph 3.5 mph 82 % 0.00 in
10:05 72.8 °F 66.6 °F 29.92 in SW 4.0 mph 8.1 mph 81 % 0.00 in
10:10 73.0 °F 67.2 °F 29.92 in SSW 2.2 mph 3.5 mph 82 % 0.00 in
10:15 73.1 °F 67.3 °F 29.92 in SW 3.8 mph 4.6 mph 82 % 0.00 in
10:21 73.4 °F 67.2 °F 29.92 in SW 2.0 mph 5.0 mph 81 % 0.00 in
10:26 73.7 °F 67.1 °F 29.92 in WSW 5.0 mph 8.0 mph 80 % 0.00 in
10:31 74.0 °F 67.4 °F 29.92 in West 5.0 mph 8.0 mph 80 % 0.00 in
10:36 74.4 °F 67.8 °F 29.92 in WSW 3.0 mph 8.0 mph 80 % 0.00 in
10:41 74.7 °F 67.4 °F 29.92 in West 4.8 mph 10.4 mph 78 % 0.00 in
10:46 74.9 °F 67.6 °F 29.93 in WSW 3.0 mph 6.0 mph 78 % 0.00 in
10:51 75.2 °F 67.8 °F 29.93 in WSW 3.0 mph 6.0 mph 78 % 0.00 in
10:56 75.4 °F 68.1 °F 29.93 in SW 1.4 mph 3.5 mph 78 % 0.00 in
11:01 75.6 °F 67.9 °F 29.93 in WNW 3.8 mph 6.9 mph 77 % 0.00 in
11:06 75.8 °F 68.1 °F 29.93 in West 3.4 mph 5.8 mph 77 % 0.00 in
11:11 76.1 °F 67.6 °F 29.93 in SW 3.3 mph 6.9 mph 75 % 0.00 in
11:16 76.5 °F 68.4 °F 29.93 in West 4.9 mph 9.2 mph 76 % 0.00 in
11:21 76.9 °F 68.0 °F 29.93 in SW 1.6 mph 3.5 mph 74 % 0.00 in
11:26 77.4 °F 68.9 °F 29.93 in West 3.1 mph 4.0 mph 75 % 0.00 in
11:31 77.8 °F 68.0 °F 29.93 in WNW 1.7 mph 4.6 mph 72 % 0.00 in
11:36 78.1 °F 68.3 °F 29.93 in WSW 3.9 mph 5.8 mph 72 % 0.00 in
11:41 78.2 °F 67.6 °F 29.93 in West 2.9 mph 4.0 mph 70 % 0.00 in
11:47 78.3 °F 68.1 °F 29.93 in WNW 2.1 mph 5.8 mph 71 % 0.00 in
11:52 78.3 °F 68.5 °F 29.93 in NW 2.2 mph 2.3 mph 72 % 0.00 in
11:57 78.4 °F 68.2 °F 29.93 in WNW 3.5 mph 5.0 mph 71 % 0.00 in
12:02 78.5 °F 68.3 °F 29.93 in WNW 1.0 mph 2.3 mph 71 % 0.00 in
12:07 78.7 °F 68.5 °F 29.93 in SW 1.5 mph 3.5 mph 71 % 0.00 in
12:12 79.0 °F 68.4 °F 29.93 in WSW 3.3 mph 4.6 mph 70 % 0.00 in
12:17 79.5 °F 68.4 °F 29.93 in WSW 3.1 mph 4.6 mph 69 % 0.00 in
12:22 79.9 °F 68.4 °F 29.93 in WSW 1.0 mph 3.5 mph 68 % 0.00 in
12:27 80.2 °F 69.1 °F 29.93 in West 1.2 mph 4.0 mph 69 % 0.00 in
12:32 80.5 °F 69.0 °F 29.93 in WSW 3.0 mph 6.0 mph 68 % 0.00 in
12:38 80.7 °F 67.8 °F 29.93 in SW 4.6 mph 8.1 mph 65 % 0.00 in
12:43 81.0 °F 68.6 °F 29.93 in West 2.0 mph 5.8 mph 66 % 0.00 in
12:48 81.3 °F 69.3 °F 29.93 in NW 2.7 mph 6.9 mph 67 % 0.00 in
12:53 81.6 °F 69.1 °F 29.93 in WNW 2.7 mph 5.8 mph 66 % 0.00 in
12:58 81.8 °F 68.4 °F 29.93 in WSW 2.4 mph 3.5 mph 64 % 0.00 in
13:03 82.0 °F 68.6 °F 29.92 in WSW 3.6 mph 8.1 mph 64 % 0.00 in
13:08 82.2 °F 68.3 °F 29.92 in SW 3.4 mph 5.8 mph 63 % 0.00 in
13:13 82.2 °F 67.9 °F 29.92 in West 4.1 mph 6.0 mph 62 % 0.00 in
13:18 82.3 °F 68.4 °F 29.92 in WNW 1.8 mph 5.8 mph 63 % 0.00 in
13:23 82.4 °F 68.1 °F 29.93 in West 4.1 mph 7.0 mph 62 % 0.00 in
13:29 82.4 °F 68.1 °F 29.93 in West 3.7 mph 9.2 mph 62 % 0.00 in
13:34 82.4 °F 68.1 °F 29.92 in WSW 5.3 mph 8.1 mph 62 % 0.00 in
13:39 82.5 °F 68.2 °F 29.92 in West 4.9 mph 11.5 mph 62 % 0.00 in
13:49 82.6 °F 67.8 °F 29.93 in West 4.8 mph 9.2 mph 61 % 0.00 in
13:54 82.8 °F 68.4 °F 29.92 in WSW 3.9 mph 8.1 mph 62 % 0.00 in
13:59 82.9 °F 67.6 °F 29.92 in NW 2.2 mph 4.6 mph 60 % 0.00 in
14:04 83.0 °F 67.2 °F 29.92 in WNW 2.6 mph 6.9 mph 59 % 0.00 in
14:09 83.1 °F 67.8 °F 29.92 in SW 4.8 mph 6.0 mph 60 % 0.00 in
14:14 83.2 °F 68.3 °F 29.92 in SW 4.3 mph 6.9 mph 61 % 0.00 in
14:20 83.3 °F 68.0 °F 29.92 in SW 5.6 mph 11.5 mph 60 % 0.00 in
14:25 83.4 °F 67.6 °F 29.92 in SW 2.0 mph 4.6 mph 59 % 0.00 in
14:30 83.4 °F 67.6 °F 29.92 in WSW 6.1 mph 8.1 mph 59 % 0.00 in
14:35 83.3 °F 67.5 °F 29.92 in NW 2.9 mph 3.5 mph 59 % 0.00 in
14:40 83.4 °F 67.6 °F 29.92 in SSW 3.7 mph 6.9 mph 59 % 0.00 in
14:45 83.4 °F 67.6 °F 29.92 in WSW 4.1 mph 6.9 mph 59 % 0.00 in
14:50 83.4 °F 67.6 °F 29.92 in West 4.0 mph 6.9 mph 59 % 0.00 in
14:55 83.4 °F 67.6 °F 29.92 in WNW 1.9 mph 6.9 mph 59 % 0.00 in
15:00 83.5 °F 67.7 °F 29.92 in SW 3.1 mph 4.6 mph 59 % 0.00 in
15:05 83.4 °F 67.6 °F 29.93 in WSW 3.4 mph 4.6 mph 59 % 0.00 in
15:11 83.5 °F 67.1 °F 29.93 in West 5.0 mph 7.0 mph 58 % 0.00 in
15:16 83.5 °F 67.1 °F 29.93 in WSW 1.0 mph 8.0 mph 58 % 0.00 in
15:21 83.4 °F 67.1 °F 29.93 in SW 3.0 mph 7.0 mph 58 % 0.00 in
15:26 83.2 °F 66.4 °F 29.93 in WSW 3.0 mph 6.0 mph 57 % 0.00 in
15:31 82.9 °F 66.6 °F 29.92 in West 1.0 mph 7.0 mph 58 % 0.00 in
15:36 82.7 °F 65.9 °F 29.93 in SW 4.0 mph 6.9 mph 57 % 0.00 in
15:41 82.5 °F 65.2 °F 29.93 in West 0.8 mph 4.6 mph 56 % 0.00 in
15:46 82.2 °F 64.4 °F 29.93 in West 4.2 mph 5.8 mph 55 % 0.00 in
15:51 81.9 °F 64.1 °F 29.93 in WNW 2.0 mph 4.6 mph 55 % 0.00 in
15:56 81.6 °F 63.3 °F 29.93 in NW 3.4 mph 5.8 mph 54 % 0.00 in
16:01 81.3 °F 61.4 °F 29.93 in West 2.0 mph 6.9 mph 51 % 0.00 in
16:06 81.1 °F 61.8 °F 29.93 in WNW 2.0 mph 5.8 mph 52 % 0.00 in
16:11 80.8 °F 60.4 °F 29.93 in WNW 3.1 mph 4.6 mph 50 % 0.00 in
16:16 80.5 °F 60.7 °F 29.94 in West 2.9 mph 8.1 mph 51 % 0.00 in
16:21 80.3 °F 61.1 °F 29.94 in West 0.4 mph 2.3 mph 52 % 0.00 in
16:27 80.0 °F 60.8 °F 29.94 in WNW 2.2 mph 4.0 mph 52 % 0.00 in
16:32 79.8 °F 60.6 °F 29.94 in WNW 3.3 mph 7.0 mph 52 % 0.00 in
16:37 79.6 °F 61.0 °F 29.93 in NW 1.3 mph 3.5 mph 53 % 0.00 in
16:42 79.3 °F 60.7 °F 29.94 in NW 1.3 mph 3.5 mph 53 % 0.00 in
16:47 79.1 °F 60.0 °F 29.94 in NW 4.0 mph 6.9 mph 52 % 0.00 in
16:52 78.8 °F 60.7 °F 29.94 in ENE 1.2 mph 4.6 mph 54 % 0.00 in
16:57 78.5 °F 60.5 °F 29.95 in WNW 2.7 mph 4.0 mph 54 % 0.00 in
17:02 78.3 °F 60.3 °F 29.95 in WNW 0.1 mph 3.5 mph 54 % 0.00 in
17:07 78.0 °F 60.0 °F 29.95 in WNW 0.3 mph 3.0 mph 54 % 0.00 in
17:12 77.8 °F 59.8 °F 29.95 in North 1.7 mph 3.5 mph 54 % 0.00 in
17:18 77.5 °F 60.1 °F 29.95 in NW 0.8 mph 3.5 mph 55 % 0.00 in
17:23 77.3 °F 60.4 °F 29.96 in NW 0.3 mph 2.3 mph 56 % 0.00 in
17:28 76.9 °F 60.5 °F 29.96 in WNW 1.0 mph 3.0 mph 57 % 0.00 in
17:33 76.4 °F 59.5 °F 29.96 in Calm   1.2 mph 56 % 0.00 in
17:38 76.1 °F 59.8 °F 29.97 in West 0.7 mph 2.3 mph 57 % 0.00 in
17:43 75.8 °F 59.0 °F 29.97 in WNW 0.3 mph 2.3 mph 56 % 0.00 in
17:48 75.6 °F 58.3 °F 29.97 in West 2.7 mph 4.6 mph 55 % 0.00 in
17:53 75.2 °F 57.4 °F 29.97 in WNW 2.8 mph 8.0 mph 54 % 0.00 in
17:58 75.0 °F 57.7 °F 29.98 in North 2.6 mph 4.0 mph 55 % 0.00 in
18:04 74.8 °F 57.5 °F 29.98 in NW 1.2 mph 4.6 mph 55 % 0.00 in
18:09 74.6 °F 58.4 °F 29.98 in WNW 4.1 mph 5.8 mph 57 % 0.00 in
18:14 74.4 °F 57.7 °F 29.98 in NNW 2.5 mph 6.9 mph 56 % 0.00 in
18:24 74.1 °F 57.4 °F 29.99 in WSW 0.9 mph 3.5 mph 56 % 0.00 in
18:29 74.0 °F 58.3 °F 29.99 in WSW 1.5 mph 3.5 mph 58 % 0.00 in
18:34 73.9 °F 58.7 °F 29.99 in West 0.2 mph 2.0 mph 59 % 0.00 in
18:39 73.7 °F 58.5 °F 29.99 in WSW 1.6 mph 2.0 mph 59 % 0.00 in
18:44 73.5 °F 58.3 °F 30.00 in NW 2.7 mph 5.8 mph 59 % 0.00 in
18:49 73.2 °F 58.0 °F 30.00 in West 0.8 mph 3.0 mph 59 % 0.00 in
18:55 72.9 °F 57.3 °F 30.00 in NW 4.0 mph 6.9 mph 58 % 0.00 in
19:00 72.7 °F 57.5 °F 30.01 in NW 1.3 mph 4.0 mph 59 % 0.00 in
19:05 72.4 °F 56.8 °F 30.01 in WNW 1.5 mph 4.6 mph 58 % 0.00 in
19:10 72.3 °F 57.2 °F 30.01 in NNE 0.3 mph 2.3 mph 59 % 0.00 in
19:15 72.2 °F 57.1 °F 30.02 in NE 0.6 mph 3.0 mph 59 % 0.00 in
19:20 72.1 °F 57.4 °F 30.02 in NW 2.2 mph 3.5 mph 60 % 0.00 in
19:25 71.9 °F 56.8 °F 30.02 in NNE 2.6 mph 6.0 mph 59 % 0.00 in
19:30 71.8 °F 56.7 °F 30.03 in NW 1.7 mph 3.5 mph 59 % 0.00 in
19:35 71.7 °F 57.1 °F 30.03 in North 1.9 mph 3.5 mph 60 % 0.00 in
19:40 71.7 °F 57.1 °F 30.03 in NE 4.3 mph 8.1 mph 60 % 0.00 in
19:46 71.7 °F 58.0 °F 30.03 in NNE 2.1 mph 3.0 mph 62 % 0.00 in
19:51 71.6 °F 57.9 °F 30.03 in North 3.0 mph 6.0 mph 62 % 0.00 in
20:01 71.3 °F 58.9 °F 30.04 in NNE 1.3 mph 5.8 mph 65 % 0.00 in
20:06 71.2 °F 59.3 °F 30.04 in NNE 1.0 mph 6.0 mph 66 % 0.00 in
20:11 71.0 °F 60.0 °F 30.04 in NNE 1.0 mph 2.0 mph 68 % 0.00 in
20:16 70.9 °F 59.8 °F 30.04 in NNE 2.4 mph 4.0 mph 68 % 0.00 in
20:21 70.6 °F 60.0 °F 30.04 in NNE 2.0 mph 6.0 mph 69 % 0.00 in
20:26 70.3 °F 60.1 °F 30.05 in NNE 1.0 mph 6.0 mph 70 % 0.00 in
20:31 70.1 °F 59.9 °F 30.05 in ENE 0.1 mph 3.5 mph 70 % 0.00 in
20:36 69.9 °F 60.1 °F 30.06 in Calm   2.0 mph 71 % 0.00 in
20:41 69.7 °F 60.7 °F 30.06 in Calm   3.0 mph 73 % 0.00 in
20:46 69.3 °F 59.9 °F 30.06 in NE 3.5 mph 6.9 mph 72 % 0.00 in
20:51 69.0 °F 59.2 °F 30.06 in NE 2.0 mph 4.0 mph 71 % 0.00 in
20:56 68.7 °F 59.3 °F 30.06 in NE 1.0 mph 4.0 mph 72 % 0.00 in
21:01 68.4 °F 59.0 °F 30.06 in NNE 3.1 mph 4.6 mph 72 % 0.00 in
21:06 68.2 °F 58.8 °F 30.06 in NNE 5.0 mph 8.0 mph 72 % 0.00 in
21:11 68.0 °F 58.6 °F 30.07 in NNE 1.0 mph 4.0 mph 72 % 0.00 in
21:16 67.9 °F 59.3 °F 30.07 in Calm   2.0 mph 74 % 0.00 in
21:21 67.8 °F 59.2 °F 30.08 in Calm     74 % 0.00 in
21:26 67.7 °F 59.5 °F 30.08 in Calm     75 % 0.00 in
21:31 67.6 °F 59.4 °F 30.08 in Calm     75 % 0.00 in
21:36 67.3 °F 59.5 °F 30.08 in Calm     76 % 0.00 in
21:41 67.0 °F 59.2 °F 30.08 in Calm     76 % 0.00 in
21:46 66.8 °F 59.4 °F 30.08 in Calm     77 % 0.00 in
21:51 66.6 °F 59.2 °F 30.09 in Calm     77 % 0.00 in
21:56 66.3 °F 58.9 °F 30.09 in Calm     77 % 0.00 in
22:01 66.1 °F 59.0 °F 30.09 in Calm     78 % 0.00 in
22:06 65.8 °F 58.7 °F 30.10 in Calm     78 % 0.00 in
22:11 65.5 °F 58.5 °F 30.10 in Calm     78 % 0.00 in
22:16 65.3 °F 58.6 °F 30.09 in Calm     79 % 0.00 in
22:26 64.8 °F 58.1 °F 30.10 in Calm     79 % 0.00 in
22:32 64.6 °F 57.9 °F 30.10 in Calm     79 % 0.00 in
22:37 64.4 °F 58.1 °F 30.11 in East 0.1 mph 1.2 mph 80 % 0.00 in
22:42 64.2 °F 57.9 °F 30.11 in Calm     80 % 0.00 in
22:47 63.9 °F 57.6 °F 30.10 in East 0.1 mph 1.2 mph 80 % 0.00 in
22:52 63.7 °F 57.4 °F 30.10 in Calm     80 % 0.00 in
22:57 63.5 °F 57.2 °F 30.10 in Calm     80 % 0.00 in
23:02 63.3 °F 57.4 °F 30.11 in Calm     81 % 0.00 in
23:07 63.2 °F 57.3 °F 30.11 in NE 0.3 mph 2.3 mph 81 % 0.00 in
23:12 63.0 °F 57.1 °F 30.11 in NNE 0.4 mph 2.3 mph 81 % 0.00 in
23:18 62.9 °F 56.6 °F 30.10 in Calm     80 % 0.00 in
23:23 62.8 °F 56.5 °F 30.11 in Calm     80 % 0.00 in
23:28 62.7 °F 56.4 °F 30.11 in Calm     80 % 0.00 in
23:33 62.6 °F 56.7 °F 30.11 in Calm     81 % 0.00 in
23:38 62.5 °F 56.9 °F 30.12 in Calm     82 % 0.00 in
23:43 62.5 °F 56.6 °F 30.11 in Calm     81 % 0.00 in
23:48 62.3 °F 56.4 °F 30.11 in NNE 0.1 mph 1.2 mph 81 % 0.00 in
23:53 62.3 °F 56.4 °F 30.11 in NNE 0.1 mph 1.2 mph 81 % 0.00 in
23:58 62.1 °F 56.2 °F 30.11 in Calm   2.3 mph 81 % 0.00 in
Crab Meadow Weather
Compliments of Weather Underground - 3 mb

Script developed by  Jim McMurry - jmcmurry@mwt.net Adapted for the template by  Wim van der Kuil - Leuven-Template.eu

Recycling: Americans use 2,500,000 plastic bottles every hour! Most of them are thrown away!